Regional Weather Roundup
Issued by NWS Upton, NY

Current Version | Previous Version | Text Only | Print | Product List | Glossary On
Versions: 1 2 3 4 5 6 7 8 9 10 11 12 13 14 15 16 17 18 19 20 21 22 23 24 25 26 27 28 29 30 31 32 33 34 35 36 37 38 39 40 41 42 43 44 45 46 47 48 49 50
000 ASUS41 KOKX 282305 RWROKX REGIONAL WEATHER ROUNDUP NATIONAL WEATHER SERVICE NEW YORK NY 600 PM EST SUN DEC 28 2014 NOTE: "FAIR" INDICATES FEW OR NO CLOUDS BELOW 12,000 FEET WITH NO SIGNIFICANT WEATHER AND/OR OBSTRUCTIONS TO VISIBILITY. NYZ071-072-176-178-NJZ106-104-290000- NEW YORK CITY METRO AREA CITY SKY/WX TMP DP RH WIND PRES REMARKS CENTRAL PARK CLOUDY 48 36 63 N12G17 30.00R LAGUARDIA APRT CLOUDY 48 37 65 NW14 29.97R KENNEDY INTL CLOUDY 52 40 63 N12 29.97R NEWARK/LIBERTY CLOUDY 51 40 65 NW8 29.98R BRNX BOT. GARD N/A 46 34 61 NW2 30.00R TETERBORO CLOUDY 50 40 68 NW9 29.97R $$ NYZ177-179-078>081-290000- LONG ISLAND NEW YORK CITY SKY/WX TMP DP RH WIND PRES REMARKS FARMINGDALE CLOUDY 50 39 66 N9 29.96R ISLIP CLOUDY 49 39 68 NW9 29.94R SHIRLEY CLOUDY 50 42 74 NW7 29.95R WESTHAMPTON CLOUDY 49 41 74 W7 29.95R MONTAUK POINT N/A 49 43 80 W6 29.93R $$ NYZ052-065-067-290000- HUDSON VALLEY CITY SKY/WX TMP DP RH WIND PRES REMARKS WHITE PLAINS CLOUDY 45 35 68 NW9 29.95R NEWBURGH MOCLDY 43 34 70 W7 29.98R MONTGOMERY CLOUDY 44 32 62 NW8 29.97R POUGHKEEPSIE CLOUDY 46 31 55 W8 29.97R ALBANY CLOUDY 38 26 62 NW10G21 30.01R WCI 31 $$ NJZ001-105-106-008-010-013-015-019>022-104-290000- NEW JERSEY CITY SKY/WX TMP DP RH WIND PRES REMARKS NEWARK/LIBERTY CLOUDY 51 40 65 NW8 29.98R TETERBORO CLOUDY 50 40 68 NW9 29.97R CALDWELL CLOUDY 46 36 68 NW7 29.99R MORRISTOWN CLOUDY 48 39 71 N8 29.99R SOMERVILLE CLOUDY 50 40 68 N9 29.97R SUSSEX CLOUDY 44 33 65 VRB5 29.99R ANDOVER NOT AVBL TRENTON CLOUDY 51 40 65 NW7 29.98R MILLVILLE LGT RAIN 48 44 86 W3 30.01R ATLANTIC CITY CLOUDY 50 44 80 SW5 30.01R WRIGHTSTOWN DRIZZLE 52 45 76 W6 29.97R TOMS RIVER CLOUDY 48 45 87 CALM 29.98R BELMAR CLOUDY 52 39 62 W6 29.97R $$ PAZ047>061-062-071-290000- EASTERN PENNSYLVANIA CITY SKY/WX TMP DP RH WIND PRES REMARKS PHILADELPHIA LGT RAIN 54 42 64 W8 30.01R ALLENTOWN CLOUDY 48 37 65 NW7 29.99R SCRANTON CLOUDY 42 30 62 CALM 29.99R $$ CTZ002-004>006-009-010-012-RIZ004-006-007-MAZ004-011-015-290000- SOUTHERN NEW ENGLAND IN CT CITY SKY/WX TMP DP RH WIND PRES REMARKS BRADLEY INTL CLOUDY 43 32 65 CALM 29.93R HARTFORD CLOUDY 45 31 58 VRB7 29.94R DANBURY CLOUDY 45 29 53 W8 29.96R WTRBRY/OXFORD CLOUDY 43 32 65 NW7 29.94R BRIDGEPORT CLOUDY 49 36 61 W13 29.94R MERIDEN CLOUDY 46 33 60 NW6 29.94R NEW HAVEN CLOUDY 51 39 63 NW6 29.94R CHESTER FAIR 45 37 76 NW8 29.93R GROTON CLOUDY 47 39 74 NW9 29.92R WILLIMANTIC CLOUDY 45 33 63 NW7 29.92R IN RI CITY SKY/WX TMP DP RH WIND PRES REMARKS PROVIDENCE CLOUDY 47 32 56 NW7 29.91R BLOCK ISLAND CLOUDY 46 41 81 W8 29.91R WESTERLY CLOUDY 47 42 83 W3 29.93R IN MA CITY SKY/WX TMP DP RH WIND PRES REMARKS BOSTON CLOUDY 47 32 56 W12G20 29.87R WORCESTER CLOUDY 40 30 67 W15G21 29.87R WCI 32 WESTFIELD CLOUDY 42 29 59 NW10 29.93R PROVINCETOWN MOCLDY 46 37 71 NW15 29.86R NANTUCKET CLOUDY 47 44 90 W13 29.88R $$ ANZ330-335-338-340-345-350-353-355-290000- COASTAL MARINE OBSERVATIONS STATION/POSITION TIME SKY/WX TEMP WIND PRES VSBY WAVE AIR SEA DIR/SP/G HT/PER (UTC) (F) (DEG/KT/KT) (MB) (MI) (FT/S) NY HARB ENTRANCE 2300 49 45 270/ 8/ 8 1015.0 3/ 6 4S FIRE IS 2300 46 N/A 4/13 20S FIRE ISLAND 2200 50 49 1014.4 4/ 6 23SW MTP 2300 N/A 5/ 7 HUDSON CANYON 2300 52 55 270/ 12/ 14 1014.4 6/ 8 EXECUTION ROCKS 2300 47 42 310/ 14/ 19 N/A WESTERN LI SOUND 2300 47 300/ 12/ 14 N/A 1 CENTRAL LI SOUND 2300 47 44 270/ 10/ 14 N/A 2/ 4 EASTERN LI SOUND NOT AVBL ROBBINS REEF 2300 51 1013.6 $$ >>>>>>>>>>>>>>>>>>>>>>>>>>>> KEY <<<<<<<<<<<<<<<<<<<<<<<<<<< > < > SKY/WX - SKY CONDITION/PRESENT WEATHER < > TMP - TEMPERATURE IN FAHRENHEIT < > DP - DEWPOINT IN FAHRENHEIT < > RH - RELATIVE HUMIDITY IN PERCENT < > WIND - DIRECTION AND SPEED IN MPH < > PRES - MEAN SEA LEVEL PRESSURE IN INCHES OF HG < > WCI - WIND CHILL INDEX < > VSB - VISIBILITY IN MILES < > HX - HEAT INDEX < > TC - TEMPERATURE IN CELSIUS < > VRB - VARIABLE WIND DIRECTION < > < >>>>>>>>>>>>>>>>>>>>>>>>>>>> KEY <<<<<<<<<<<<<<<<<<<<<<<<<<<

USA.gov is the U.S. government's official web portal to all federal, state and local government web resources and services.